2018-083F (43667 NORAD) Tracking and Keplerian Element Data

This shows tracking and keplerian element data for the satellite.

Feedback or suggestion? Click here.




ElementValue
Catalog43667
Name2018-083F
Epoch Orbit227
Epoch Day316.52379699
Epoch Year2018
RAAN338.8576
Inclination97.6207
Eccentricity0.0197296
Argument of Perigee347.1317
Mean Anonmoly12.4947
Mean Motion15.75105027
Decay Rate0.00237788
L11 43667U 18083F 18316.52379699 .00237788 23541-5 42736-3 0 9995
L22 43667 97.6207 338.8576 0197296 347.1317 12.4947 15.75105027 2270

Live tracking and technical data element details for 2018-083F (NORAD 43667). 2018-083F can be tracked NOW for your location showing map with azimuth and elevation plus other details from your city location.

Track the satellite on the map from your city or location and see movement details for azimuth, elevation, latitude, longitude, range, height, and movement on the map or in text.







IsCatalogInMostPopularTable: catalog: 43667, numindb: 4
Update: records affected: 1



GetName: 43667 2018-083F

Hit Count: updated at: Tue, 13 Nov 2018 06:25:02 GMT